Tracking 32140 objects as of 13-Nov-2025
HD Live streaming from Space Station
objects crossing your sky now

STARLINK-34797

Track STARLINK-34797 now!
10-day predictions
STARLINK-34797 is classified as:


NORAD ID: 65363
Int'l Code: 2025-190N
Perigee: 481.2 km
Apogee: 483.2 km
Inclination: 53.2 °
Period: 94.1 minutes
Semi major axis: 6853 km
RCS: Unknown
Launch date: August 28, 2025
Source: United States (US)
Launch site: AIR FORCE EASTERN TEST RANGE (AFETR)
Your satellite tracking list
Your tracking list is empty




NASA's NSSDC Master Catalog

Two Line Element Set (TLE):
1 65363U 25190N   25316.83869584  .00050991  00000-0  17185-2 0  9996
2 65363  53.1609 351.0225 0001461  89.0293 271.0875 15.30265385 11864
Source of the keplerian elements: AFSPC